VYA605 GMMX-GVAC

Flight info

Callsign VYA605
Flight time 3h 16m
Altitude 39000
Route LISRA UG850 ADM UA600 SOLNA/N0463F380 DCT GUNET UW11 PINPO PINPO1F
Aircraft CL60/M-SADE3FGHIJ3J4J7P2RWXY/HB1D1

Departure

Time 2026-04-29 15:30
Airport Marrakesh Menara Airport (GMMX)

Arrival

Time 2026-04-29 18:47
Airport Amílcar Cabral International Airport (GVAC)
Time Latitude Longitude Altitude Speed Heading
2026-04-29 15:11 31.60335 -8.02853 1557 ft 0 kts 185°
2026-04-29 15:27 31.60331 -8.02851 1558 ft 4 kts 147°
2026-04-29 15:27 31.60355 -8.02806 1557 ft 9 kts 41°
2026-04-29 15:28 31.60430 -8.02761 1555 ft 9 kts 56°
2026-04-29 15:28 31.60436 -8.02703 1556 ft 11 kts 95°
2026-04-29 15:28 31.60423 -8.02561 1559 ft 14 kts 96°
2026-04-29 15:28 31.60412 -8.02433 1559 ft 17 kts 96°
2026-04-29 15:29 31.60399 -8.02282 1558 ft 20 kts 95°
2026-04-29 15:29 31.60525 -8.02157 1557 ft 13 kts
2026-04-29 15:30 31.60645 -8.03127 1543 ft 142 kts 275°
2026-04-29 15:30 31.60760 -8.04483 1895 ft 178 kts 276°
2026-04-29 15:30 31.60895 -8.05893 2874 ft 179 kts 278°
2026-04-29 15:30 31.61031 -8.07331 3798 ft 182 kts 277°
2026-04-29 15:31 31.61170 -8.08912 4232 ft 214 kts 277°
2026-04-29 15:31 31.61333 -8.10768 4798 ft 241 kts 276°
2026-04-29 15:31 31.61504 -8.12736 5801 ft 249 kts 276°
2026-04-29 15:31 31.61680 -8.14765 6862 ft 254 kts 276°
2026-04-29 15:32 31.61776 -8.16818 7868 ft 259 kts 262°
2026-04-29 15:32 31.61087 -8.18704 8908 ft 259 kts 226°
2026-04-29 15:32 31.59584 -8.19787 9928 ft 260 kts 195°
2026-04-29 15:32 31.57825 -8.20274 10917 ft 264 kts 193°
2026-04-29 15:33 31.56025 -8.20767 11918 ft 267 kts 193°
2026-04-29 15:33 31.54223 -8.21264 12867 ft 270 kts 194°
2026-04-29 15:33 31.52397 -8.21768 13760 ft 274 kts 194°
2026-04-29 15:33 31.50541 -8.22280 14673 ft 277 kts 194°
2026-04-29 15:34 31.48643 -8.22803 15578 ft 280 kts 194°
2026-04-29 15:34 31.46767 -8.23377 16421 ft 282 kts 202°
2026-04-29 15:34 31.45088 -8.24578 17103 ft 291 kts 221°
2026-04-29 15:34 31.43562 -8.26244 17565 ft 307 kts 224°
2026-04-29 15:35 31.42002 -8.27966 18238 ft 314 kts 223°
2026-04-29 15:35 31.40396 -8.29732 19043 ft 317 kts 223°
2026-04-29 15:35 31.38781 -8.31507 19798 ft 320 kts 223°
2026-04-29 15:35 31.37134 -8.33316 20564 ft 323 kts 223°
2026-04-29 15:36 31.35486 -8.35124 21272 ft 327 kts 224°
2026-04-29 15:36 31.33833 -8.36937 21995 ft 329 kts 224°
2026-04-29 15:36 31.32170 -8.38759 22702 ft 331 kts 224°
2026-04-29 15:36 31.30468 -8.40622 23369 ft 334 kts 224°
2026-04-29 15:37 31.28772 -8.42477 24034 ft 338 kts 224°
2026-04-29 15:37 31.27058 -8.44352 24663 ft 341 kts 224°
2026-04-29 15:37 31.25294 -8.46279 25291 ft 344 kts 224°
2026-04-29 15:37 31.23535 -8.48188 25899 ft 347 kts 223°
2026-04-29 15:38 31.21720 -8.50041 26492 ft 350 kts 222°
2026-04-29 15:38 31.19877 -8.51895 27046 ft 352 kts 222°
2026-04-29 15:38 31.18016 -8.53768 27560 ft 356 kts 222°
2026-04-29 15:38 31.16134 -8.55660 28080 ft 358 kts 222°
2026-04-29 15:39 31.14211 -8.57592 28617 ft 360 kts 222°
2026-04-29 15:39 31.12305 -8.59507 29080 ft 363 kts 222°
2026-04-29 15:39 31.10405 -8.61415 29546 ft 366 kts 222°
2026-04-29 15:39 31.08446 -8.63379 29980 ft 368 kts 222°
2026-04-29 15:40 31.06497 -8.65333 30419 ft 370 kts 221°
2026-04-29 15:40 31.04539 -8.67295 30849 ft 372 kts 222°
2026-04-29 15:40 31.02550 -8.69286 31274 ft 374 kts 222°
2026-04-29 15:40 31.00571 -8.71266 31670 ft 375 kts 222°
2026-04-29 15:41 30.98563 -8.73274 32065 ft 377 kts 222°
2026-04-29 15:41 30.96540 -8.75297 32408 ft 379 kts 222°
2026-04-29 15:41 30.94514 -8.77321 32738 ft 381 kts 223°
2026-04-29 15:41 30.92507 -8.79324 33070 ft 383 kts 223°
2026-04-29 15:42 30.90464 -8.81362 33413 ft 383 kts 223°
2026-04-29 15:42 30.88466 -8.83341 33735 ft 385 kts 223°
2026-04-29 15:42 30.86392 -8.85373 34092 ft 385 kts 223°
2026-04-29 15:42 30.84340 -8.87382 34508 ft 383 kts 223°
2026-04-29 15:43 30.82278 -8.89400 34931 ft 381 kts 223°
2026-04-29 15:43 30.80260 -8.91373 35349 ft 379 kts 223°
2026-04-29 15:43 30.78217 -8.93371 35695 ft 378 kts 223°
2026-04-29 15:43 30.76198 -8.95344 36027 ft 377 kts 223°
2026-04-29 15:44 30.74198 -8.97297 36339 ft 376 kts 223°
2026-04-29 15:44 30.72193 -8.99254 36635 ft 376 kts 223°
2026-04-29 15:44 30.70153 -9.01245 36899 ft 376 kts 223°
2026-04-29 15:44 30.68172 -9.03177 37139 ft 376 kts 223°
2026-04-29 15:45 30.66164 -9.05134 37420 ft 375 kts 223°
2026-04-29 15:45 30.64146 -9.07099 37659 ft 375 kts 223°
2026-04-29 15:45 30.62155 -9.09051 37922 ft 374 kts 224°
2026-04-29 15:45 30.60129 -9.11040 38168 ft 373 kts 224°
2026-04-29 15:46 30.58156 -9.12975 38366 ft 373 kts 224°
2026-04-29 15:46 30.56147 -9.14945 38568 ft 373 kts 224°
2026-04-29 15:46 30.54166 -9.16886 38727 ft 373 kts 224°
2026-04-29 15:46 30.52180 -9.18831 38909 ft 373 kts 224°
2026-04-29 15:47 30.50188 -9.20781 39089 ft 373 kts 224°
2026-04-29 15:47 30.48188 -9.22737 39281 ft 372 kts 224°
2026-04-29 15:47 30.46221 -9.24659 39451 ft 371 kts 224°
2026-04-29 15:47 30.44230 -9.26605 39613 ft 371 kts 224°
2026-04-29 15:48 30.42237 -9.28551 39727 ft 371 kts 224°
2026-04-29 15:48 30.40282 -9.30460 39858 ft 370 kts 224°
2026-04-29 15:48 30.38307 -9.32386 40003 ft 370 kts 224°
2026-04-29 15:48 30.36319 -9.34324 40153 ft 368 kts 224°
2026-04-29 15:49 30.34329 -9.36263 40234 ft 369 kts 224°
2026-04-29 15:49 30.30576 -9.40310 40434 ft 365 kts 231°
2026-04-29 15:50 30.27145 -9.44657 40575 ft 366 kts 230°
2026-04-29 15:50 30.23674 -9.49038 40706 ft 366 kts 230°
2026-04-29 15:51 30.20243 -9.53359 40881 ft 365 kts 230°
2026-04-29 15:51 30.16785 -9.57709 40890 ft 367 kts 230°
2026-04-29 15:52 30.13308 -9.62074 40898 ft 370 kts 230°
2026-04-29 15:52 30.09786 -9.66491 40899 ft 372 kts 230°
2026-04-29 15:53 30.06247 -9.70922 40903 ft 375 kts 230°
2026-04-29 15:53 30.02709 -9.75374 40914 ft 378 kts 230°
2026-04-29 15:54 29.99205 -9.79867 40913 ft 380 kts 231°
2026-04-29 15:54 29.95629 -9.84445 40912 ft 383 kts 231°
2026-04-29 15:55 29.92040 -9.89033 40906 ft 385 kts 230°
2026-04-29 15:55 29.88474 -9.93585 40916 ft 387 kts 230°
2026-04-29 15:56 29.84852 -9.98204 40924 ft 389 kts 230°
2026-04-29 15:56 29.81203 -10.02841 40910 ft 391 kts 230°
2026-04-29 15:57 29.77479 -10.07444 40916 ft 393 kts 229°
2026-04-29 15:57 29.73749 -10.12043 40910 ft 394 kts 230°
2026-04-29 15:58 29.69959 -10.16713 40912 ft 395 kts 230°
2026-04-29 15:58 29.66199 -10.21340 40915 ft 396 kts 229°
2026-04-29 15:59 29.62433 -10.25968 40910 ft 397 kts 229°
2026-04-29 15:59 29.58661 -10.30600 40913 ft 397 kts 230°
2026-04-29 16:00 29.54880 -10.35237 40912 ft 398 kts 230°
2026-04-29 16:00 29.51101 -10.39866 40910 ft 398 kts 229°
2026-04-29 16:01 29.47316 -10.44498 40919 ft 398 kts 229°
2026-04-29 16:01 29.43553 -10.49098 40922 ft 398 kts 229°
2026-04-29 16:02 29.39763 -10.53724 40917 ft 398 kts 229°
2026-04-29 16:02 29.35976 -10.58342 40925 ft 397 kts 230°
2026-04-29 16:03 29.32186 -10.62958 40935 ft 397 kts 230°
2026-04-29 16:03 29.28399 -10.67565 40932 ft 398 kts 229°
2026-04-29 16:04 29.24592 -10.72191 40927 ft 399 kts 229°
2026-04-29 16:04 29.20777 -10.76821 40932 ft 399 kts 229°
2026-04-29 16:05 29.16963 -10.81444 40940 ft 399 kts 229°
2026-04-29 16:05 29.13159 -10.86052 40947 ft 399 kts 229°
2026-04-29 16:06 29.09346 -10.90663 40936 ft 399 kts 229°
2026-04-29 16:06 29.05536 -10.95266 40953 ft 399 kts 229°
2026-04-29 16:07 29.01718 -10.99873 40944 ft 399 kts 229°
2026-04-29 16:07 28.97904 -11.04471 40942 ft 399 kts 229°
2026-04-29 16:08 28.94102 -11.09047 40946 ft 398 kts 229°
2026-04-29 16:08 28.90299 -11.13621 40942 ft 398 kts 229°
2026-04-29 16:09 28.86468 -11.18224 40941 ft 398 kts 229°
2026-04-29 16:09 28.82665 -11.22786 40946 ft 398 kts 229°
2026-04-29 16:10 28.78834 -11.27378 40939 ft 398 kts 229°
2026-04-29 16:10 28.75012 -11.31954 40940 ft 398 kts 229°
2026-04-29 16:11 28.71203 -11.36508 40936 ft 397 kts 229°
2026-04-29 16:11 28.67368 -11.41048 41001 ft 396 kts 228°
2026-04-29 16:12 28.63189 -11.45114 41056 ft 399 kts 218°
2026-04-29 16:12 28.58069 -11.47879 40634 ft 420 kts 200°
2026-04-29 16:12 28.55131 -11.48387 40358 ft 435 kts 188°
2026-04-29 16:13 28.52056 -11.48080 40191 ft 452 kts 174°
2026-04-29 16:13 28.49036 -11.46802 40118 ft 469 kts 158°
2026-04-29 16:13 28.46374 -11.44498 39964 ft 490 kts 140°
2026-04-29 16:13 28.44371 -11.41334 39556 ft 505 kts 133°
2026-04-29 16:14 28.42257 -11.38308 40428 ft 473 kts 136°
2026-04-29 16:14 28.40211 -11.35416 40930 ft 462 kts 138°
2026-04-29 16:14 28.37945 -11.32869 40837 ft 454 kts 149°
2026-04-29 16:14 28.35378 -11.30828 40912 ft 443 kts 158°
2026-04-29 16:15 28.32608 -11.29344 40920 ft 432 kts 168°
2026-04-29 16:15 28.26851 -11.28162 40929 ft 412 kts 188°
2026-04-29 16:16 28.21212 -11.28837 40923 ft 406 kts 195°
2026-04-29 16:16 28.15582 -11.29732 40932 ft 407 kts 195°
2026-04-29 16:17 28.09965 -11.30632 40939 ft 408 kts 195°
2026-04-29 16:17 28.04382 -11.31784 40931 ft 400 kts 205°
2026-04-29 16:18 27.99598 -11.34761 40959 ft 386 kts 225°
2026-04-29 16:18 27.95860 -11.39076 40933 ft 383 kts 230°
2026-04-29 16:19 27.92173 -11.43460 40931 ft 384 kts 229°
2026-04-29 16:19 27.88450 -11.47814 40931 ft 385 kts 229°
2026-04-29 16:20 27.84671 -11.52160 40920 ft 385 kts 229°
2026-04-29 16:20 27.80856 -11.56434 40913 ft 386 kts 228°
2026-04-29 16:21 27.77008 -11.60671 40929 ft 385 kts 228°
2026-04-29 16:21 27.73162 -11.64894 40935 ft 386 kts 228°
2026-04-29 16:22 27.69306 -11.69118 40948 ft 386 kts 227°
2026-04-29 16:22 27.65410 -11.73376 40945 ft 388 kts 227°
2026-04-29 16:23 27.61521 -11.77619 40954 ft 389 kts 227°
2026-04-29 16:23 27.57649 -11.81836 40946 ft 389 kts 227°
2026-04-29 16:24 27.53713 -11.86116 40942 ft 389 kts 227°
2026-04-29 16:24 27.49824 -11.90339 40944 ft 389 kts 227°
2026-04-29 16:25 27.45912 -11.94583 40941 ft 388 kts 227°
2026-04-29 16:25 27.42017 -11.98802 40942 ft 388 kts 227°
2026-04-29 16:26 27.38127 -12.03011 40938 ft 388 kts 227°
2026-04-29 16:26 27.34223 -12.07231 40937 ft 388 kts 227°
2026-04-29 16:27 27.30323 -12.11441 40928 ft 387 kts 227°
2026-04-29 16:27 27.26403 -12.15669 40930 ft 387 kts 227°
2026-04-29 16:28 27.22520 -12.19852 40941 ft 386 kts 227°
2026-04-29 16:28 27.18636 -12.24032 40941 ft 386 kts 228°
2026-04-29 16:29 27.14735 -12.28225 40947 ft 385 kts 227°
2026-04-29 16:29 27.10858 -12.32389 40935 ft 385 kts 228°
2026-04-29 16:30 27.06981 -12.36548 40934 ft 384 kts 227°
2026-04-29 16:30 27.03137 -12.40668 40938 ft 383 kts 228°
2026-04-29 16:31 26.99256 -12.44822 40920 ft 383 kts 227°
2026-04-29 16:31 26.95406 -12.48940 40900 ft 382 kts 228°
2026-04-29 16:32 26.91539 -12.53072 40918 ft 380 kts 228°
2026-04-29 16:32 26.87693 -12.57178 40929 ft 380 kts 228°
2026-04-29 16:33 26.81934 -12.63318 40917 ft 379 kts 228°
2026-04-29 16:33 26.78109 -12.67391 40917 ft 380 kts 227°
2026-04-29 16:34 26.74268 -12.71478 40907 ft 381 kts 227°
2026-04-29 16:34 26.70428 -12.75559 40920 ft 381 kts 227°
2026-04-29 16:35 26.66563 -12.79662 40908 ft 381 kts 227°
2026-04-29 16:35 26.62698 -12.83761 40928 ft 381 kts 227°
2026-04-29 16:36 26.58813 -12.87878 40922 ft 382 kts 227°
2026-04-29 16:36 26.54959 -12.91957 40910 ft 382 kts 227°
2026-04-29 16:37 26.51265 -12.95863 40906 ft 382 kts 227°
2026-04-29 16:37 26.48032 -12.99280 40911 ft 382 kts 228°
2026-04-29 16:38 26.43515 -13.04047 40924 ft 382 kts 227°
2026-04-29 16:38 26.39655 -13.08117 40927 ft 382 kts 228°
2026-04-29 16:39 26.35784 -13.12195 40930 ft 382 kts 227°
2026-04-29 16:39 26.31873 -13.16311 40934 ft 382 kts 227°
2026-04-29 16:40 26.28008 -13.20375 40935 ft 382 kts 228°
2026-04-29 16:40 26.24122 -13.24457 40940 ft 382 kts 227°
2026-04-29 16:41 26.20252 -13.28517 40935 ft 383 kts 227°
2026-04-29 16:41 26.16367 -13.32590 40936 ft 383 kts 228°
2026-04-29 16:42 26.12472 -13.36669 40936 ft 383 kts 227°
2026-04-29 16:42 26.08581 -13.40739 40937 ft 383 kts 228°
2026-04-29 16:43 26.04714 -13.44781 40937 ft 383 kts 228°
2026-04-29 16:43 26.00797 -13.48872 40934 ft 382 kts 227°
2026-04-29 16:44 25.96902 -13.52935 40930 ft 382 kts 228°
2026-04-29 16:44 25.93018 -13.56982 40931 ft 382 kts 228°
2026-04-29 16:45 25.89140 -13.61021 40932 ft 382 kts 228°
2026-04-29 16:45 25.85272 -13.65044 40928 ft 382 kts 227°
2026-04-29 16:46 25.81374 -13.69097 40934 ft 384 kts 227°
2026-04-29 16:46 25.77460 -13.73161 40928 ft 386 kts 227°
2026-04-29 16:47 25.73514 -13.77255 40928 ft 388 kts 227°
2026-04-29 16:47 25.69542 -13.81372 40924 ft 391 kts 227°
2026-04-29 16:48 25.65530 -13.85525 40928 ft 393 kts 227°
2026-04-29 16:48 25.61494 -13.89701 40925 ft 395 kts 227°
2026-04-29 16:49 25.57448 -13.93881 40923 ft 396 kts 227°
2026-04-29 16:49 25.53422 -13.98036 40932 ft 395 kts 227°
2026-04-29 16:50 25.49391 -14.02193 40929 ft 395 kts 227°
2026-04-29 16:50 25.45352 -14.06355 40926 ft 395 kts 227°
2026-04-29 16:51 25.41321 -14.10504 40919 ft 395 kts 227°
2026-04-29 16:51 25.37266 -14.14674 40929 ft 394 kts 227°
2026-04-29 16:52 25.33223 -14.18828 40923 ft 395 kts 227°
2026-04-29 16:52 25.29189 -14.22969 40920 ft 394 kts 228°
2026-04-29 16:53 25.25163 -14.27097 40916 ft 394 kts 228°
2026-04-29 16:53 25.21114 -14.31246 40914 ft 394 kts 228°
2026-04-29 16:54 25.17074 -14.35381 40919 ft 394 kts 227°
2026-04-29 16:54 25.13067 -14.39480 40930 ft 393 kts 227°
2026-04-29 16:55 25.09022 -14.43612 40926 ft 393 kts 228°
2026-04-29 16:55 25.04994 -14.47724 40917 ft 393 kts 228°
2026-04-29 16:56 25.00982 -14.51815 40924 ft 392 kts 227°
2026-04-29 16:56 24.96992 -14.55880 40932 ft 391 kts 228°
2026-04-29 16:57 24.92962 -14.59983 40921 ft 392 kts 227°
2026-04-29 16:57 24.88971 -14.64042 40925 ft 392 kts 227°
2026-04-29 16:58 24.84933 -14.68146 40916 ft 394 kts 227°
2026-04-29 16:58 24.80866 -14.72275 40917 ft 394 kts 227°
2026-04-29 16:59 24.76845 -14.76353 40916 ft 394 kts 227°
2026-04-29 16:59 24.72807 -14.80445 40921 ft 394 kts 227°
2026-04-29 17:00 24.68750 -14.84552 40929 ft 394 kts 227°
2026-04-29 17:00 24.64689 -14.88658 40924 ft 394 kts 227°
2026-04-29 17:01 24.60675 -14.92714 40919 ft 394 kts 227°
2026-04-29 17:01 24.56612 -14.96817 40927 ft 394 kts 227°
2026-04-29 17:02 24.52561 -15.00903 40919 ft 394 kts 227°
2026-04-29 17:02 24.48524 -15.04971 40912 ft 393 kts 228°
2026-04-29 17:03 24.44465 -15.09058 40939 ft 394 kts 227°
2026-04-29 17:03 24.40417 -15.13129 40920 ft 393 kts 227°
2026-04-29 17:04 24.36384 -15.17183 40924 ft 393 kts 227°
2026-04-29 17:04 24.32340 -15.21243 40922 ft 393 kts 227°
2026-04-29 17:05 24.28318 -15.25278 40920 ft 392 kts 227°
2026-04-29 17:05 24.24276 -15.29330 40915 ft 392 kts 227°
2026-04-29 17:06 24.20207 -15.33405 40928 ft 392 kts 228°
2026-04-29 17:06 24.16171 -15.37444 40923 ft 392 kts 227°
2026-04-29 17:07 24.12784 -15.40829 40931 ft 392 kts 228°
2026-04-29 17:07 24.08060 -15.45548 40932 ft 392 kts 227°
2026-04-29 17:08 24.04036 -15.49564 40935 ft 390 kts 227°
2026-04-29 17:08 24.00003 -15.53584 40927 ft 391 kts 227°
2026-04-29 17:09 23.95987 -15.57585 40929 ft 390 kts 227°
2026-04-29 17:09 23.91936 -15.61616 40929 ft 390 kts 227°
2026-04-29 17:10 23.87929 -15.65602 40928 ft 390 kts 227°
2026-04-29 17:10 23.83888 -15.69617 40940 ft 391 kts 227°
2026-04-29 17:11 23.79867 -15.73608 40941 ft 391 kts 227°
2026-04-29 17:11 23.75832 -15.77610 40939 ft 391 kts 227°
2026-04-29 17:12 23.71796 -15.81610 40938 ft 391 kts 227°
2026-04-29 17:12 23.68436 -15.84937 40942 ft 391 kts 227°
2026-04-29 17:13 23.63742 -15.89580 40937 ft 391 kts 227°
2026-04-29 17:13 23.59688 -15.93587 40934 ft 391 kts 227°
2026-04-29 17:14 23.55649 -15.97576 40936 ft 391 kts 227°
2026-04-29 17:14 23.51638 -16.01533 40940 ft 390 kts 227°
2026-04-29 17:15 23.47596 -16.05518 40935 ft 390 kts 227°
2026-04-29 17:15 23.43541 -16.09513 40943 ft 391 kts 227°
2026-04-29 17:16 23.39510 -16.13480 40944 ft 391 kts 227°
2026-04-29 17:16 23.35457 -16.17466 40935 ft 392 kts 227°
2026-04-29 17:17 23.31409 -16.21442 40935 ft 392 kts 227°
2026-04-29 17:17 23.27365 -16.25413 40937 ft 392 kts 228°
2026-04-29 17:18 23.23297 -16.29402 40941 ft 392 kts 227°
2026-04-29 17:18 23.19221 -16.33396 40942 ft 392 kts 227°
2026-04-29 17:19 23.15162 -16.37370 40938 ft 392 kts 227°
2026-04-29 17:19 23.11100 -16.41344 40938 ft 392 kts 227°
2026-04-29 17:20 23.07018 -16.45333 40938 ft 392 kts 227°
2026-04-29 17:20 23.02987 -16.49270 40937 ft 392 kts 227°
2026-04-29 17:21 22.98925 -16.53233 40935 ft 392 kts 227°
2026-04-29 17:21 22.94866 -16.57190 40930 ft 392 kts 227°
2026-04-29 17:22 22.90788 -16.61162 40939 ft 392 kts 227°
2026-04-29 17:22 22.86717 -16.65125 40941 ft 393 kts 227°
2026-04-29 17:23 22.82628 -16.69101 40939 ft 394 kts 227°
2026-04-29 17:23 22.78540 -16.73073 40940 ft 394 kts 227°
2026-04-29 17:24 22.74466 -16.77028 40942 ft 393 kts 227°
2026-04-29 17:24 22.70384 -16.80987 40959 ft 393 kts 227°
2026-04-29 17:25 22.66267 -16.84976 40944 ft 393 kts 227°
2026-04-29 17:25 22.62178 -16.88936 40946 ft 393 kts 227°
2026-04-29 17:26 22.58073 -16.92908 40942 ft 394 kts 227°
2026-04-29 17:26 22.53982 -16.96862 40950 ft 394 kts 227°
2026-04-29 17:27 22.49894 -17.00811 40958 ft 394 kts 227°
2026-04-29 17:27 22.45808 -17.04755 40957 ft 394 kts 227°
2026-04-29 17:28 22.41693 -17.08722 40947 ft 395 kts 227°
2026-04-29 17:28 22.37590 -17.12674 40955 ft 394 kts 227°
2026-04-29 17:29 22.33457 -17.16653 40948 ft 395 kts 227°
2026-04-29 17:29 22.30060 -17.19922 40943 ft 395 kts 227°
2026-04-29 17:30 22.25266 -17.24529 40955 ft 395 kts 227°
2026-04-29 17:30 22.21131 -17.28499 40949 ft 395 kts 227°
2026-04-29 17:31 22.17027 -17.32437 40958 ft 395 kts 227°
2026-04-29 17:31 22.12908 -17.36386 40952 ft 396 kts 227°
2026-04-29 17:32 22.08778 -17.40341 40948 ft 396 kts 228°
2026-04-29 17:32 22.04647 -17.44294 40960 ft 396 kts 227°
2026-04-29 17:33 22.00523 -17.48239 40955 ft 397 kts 228°
2026-04-29 17:33 21.96397 -17.52181 40959 ft 396 kts 227°
2026-04-29 17:34 21.92265 -17.56125 40959 ft 397 kts 228°
2026-04-29 17:34 21.88112 -17.60087 40954 ft 398 kts 227°
2026-04-29 17:35 21.81905 -17.66003 40959 ft 398 kts 227°
2026-04-29 17:36 21.77755 -17.69953 40962 ft 398 kts 227°
2026-04-29 17:36 21.73606 -17.73900 40956 ft 399 kts 227°
2026-04-29 17:37 21.69447 -17.77853 40959 ft 398 kts 227°
2026-04-29 17:37 21.65265 -17.81825 40957 ft 398 kts 227°
2026-04-29 17:38 21.61121 -17.85757 40956 ft 398 kts 227°
2026-04-29 17:38 21.56933 -17.89728 40954 ft 398 kts 227°
2026-04-29 17:39 21.52792 -17.93651 40950 ft 398 kts 227°
2026-04-29 17:39 21.48635 -17.97587 40946 ft 399 kts 227°
2026-04-29 17:40 21.44441 -18.01553 40948 ft 399 kts 227°
2026-04-29 17:40 21.40273 -18.05493 40947 ft 400 kts 227°
2026-04-29 17:41 21.36099 -18.09435 40947 ft 400 kts 227°
2026-04-29 17:41 21.31921 -18.13377 40946 ft 400 kts 227°
2026-04-29 17:42 21.27714 -18.17345 40951 ft 400 kts 227°
2026-04-29 17:42 21.23538 -18.21279 40945 ft 400 kts 227°
2026-04-29 17:43 21.19324 -18.25246 40948 ft 400 kts 227°
2026-04-29 17:43 21.15145 -18.29177 40949 ft 400 kts 227°
2026-04-29 17:44 21.10927 -18.33142 40945 ft 401 kts 227°
2026-04-29 17:44 21.06735 -18.37079 40939 ft 401 kts 227°
2026-04-29 17:45 21.02514 -18.41040 40942 ft 401 kts 227°
2026-04-29 17:45 20.98320 -18.44973 40949 ft 402 kts 227°
2026-04-29 17:46 20.94100 -18.48926 40948 ft 402 kts 227°
2026-04-29 17:46 20.89886 -18.52871 40953 ft 402 kts 227°
2026-04-29 17:47 20.85638 -18.56846 40948 ft 403 kts 227°
2026-04-29 17:47 20.81420 -18.60790 40937 ft 403 kts 227°
2026-04-29 17:48 20.77203 -18.64728 40949 ft 403 kts 227°
2026-04-29 17:48 20.72972 -18.68678 40950 ft 404 kts 227°
2026-04-29 17:49 20.68705 -18.72658 40956 ft 405 kts 227°
2026-04-29 17:49 20.64423 -18.76649 40958 ft 405 kts 227°
2026-04-29 17:50 20.60193 -18.80587 40973 ft 405 kts 227°
2026-04-29 17:50 20.55916 -18.84567 40967 ft 406 kts 227°
2026-04-29 17:51 20.51666 -18.88519 40965 ft 406 kts 227°
2026-04-29 17:51 20.47416 -18.92467 40971 ft 406 kts 227°
2026-04-29 17:52 20.43130 -18.96446 40967 ft 406 kts 227°
2026-04-29 17:52 20.38839 -19.00426 40955 ft 406 kts 227°
2026-04-29 17:53 20.34537 -19.04414 40973 ft 406 kts 227°
2026-04-29 17:53 20.30237 -19.08397 40965 ft 407 kts 227°
2026-04-29 17:54 20.25963 -19.12353 40963 ft 408 kts 227°
2026-04-29 17:54 20.21688 -19.16307 40973 ft 407 kts 227°
2026-04-29 17:55 20.17402 -19.20268 40969 ft 408 kts 227°
2026-04-29 17:55 20.13092 -19.24248 40968 ft 408 kts 227°
2026-04-29 17:56 20.08801 -19.28207 40958 ft 408 kts 227°
2026-04-29 17:56 20.04519 -19.32155 40964 ft 408 kts 227°
2026-04-29 17:57 20.00211 -19.36124 40959 ft 407 kts 227°
2026-04-29 17:57 19.95896 -19.40095 40964 ft 408 kts 227°
2026-04-29 17:58 19.91589 -19.44059 40972 ft 408 kts 227°
2026-04-29 17:58 19.87280 -19.48019 40973 ft 408 kts 227°
2026-04-29 17:59 19.82977 -19.51972 40967 ft 409 kts 227°
2026-04-29 17:59 19.78642 -19.55952 40966 ft 410 kts 227°
2026-04-29 18:00 19.75051 -19.59245 40972 ft 411 kts 226°
2026-04-29 18:00 19.69962 -19.63910 40966 ft 411 kts 227°
2026-04-29 18:01 19.65621 -19.67885 40954 ft 412 kts 226°
2026-04-29 18:01 19.61273 -19.71864 40969 ft 412 kts 226°
2026-04-29 18:02 19.57194 -19.76089 40965 ft 407 kts 232°
2026-04-29 18:02 19.53347 -19.80545 40965 ft 408 kts 232°
2026-04-29 18:03 19.49508 -19.84979 40973 ft 407 kts 232°
2026-04-29 18:03 19.45670 -19.89408 40965 ft 407 kts 232°
2026-04-29 18:04 19.41810 -19.93855 40970 ft 408 kts 232°
2026-04-29 18:04 19.37944 -19.98305 40975 ft 408 kts 232°
2026-04-29 18:05 19.34050 -20.02784 40968 ft 409 kts 232°
2026-04-29 18:05 19.30168 -20.07243 40965 ft 409 kts 233°
2026-04-29 18:06 19.26306 -20.11677 40969 ft 410 kts 232°
2026-04-29 18:06 19.22436 -20.16115 40968 ft 410 kts 232°
2026-04-29 18:07 19.18531 -20.20590 40968 ft 411 kts 233°
2026-04-29 18:07 19.14634 -20.25054 40961 ft 412 kts 232°
2026-04-29 18:08 19.10733 -20.29516 40971 ft 412 kts 232°
2026-04-29 18:08 19.06813 -20.33998 40974 ft 412 kts 232°
2026-04-29 18:09 19.02894 -20.38476 40965 ft 413 kts 232°
2026-04-29 18:09 18.98974 -20.42951 40969 ft 414 kts 232°
2026-04-29 18:10 18.95046 -20.47431 40967 ft 414 kts 232°
2026-04-29 18:10 18.91129 -20.51897 40971 ft 414 kts 232°
2026-04-29 18:11 18.87189 -20.56385 40970 ft 414 kts 232°
2026-04-29 18:11 18.83265 -20.60851 40976 ft 415 kts 233°
2026-04-29 18:12 18.79321 -20.65338 40977 ft 415 kts 232°
2026-04-29 18:12 18.75358 -20.69843 40981 ft 416 kts 232°
2026-04-29 18:13 18.71425 -20.74310 40980 ft 417 kts 232°
2026-04-29 18:13 18.67465 -20.78805 40976 ft 417 kts 232°
2026-04-29 18:14 18.63514 -20.83287 40983 ft 416 kts 232°
2026-04-29 18:14 18.59550 -20.87779 40979 ft 417 kts 232°
2026-04-29 18:15 18.55586 -20.92268 40980 ft 417 kts 232°
2026-04-29 18:15 18.51629 -20.96744 40978 ft 417 kts 232°
2026-04-29 18:16 18.47667 -21.01225 40978 ft 418 kts 232°
2026-04-29 18:16 18.43685 -21.05726 40979 ft 418 kts 232°
2026-04-29 18:17 18.39710 -21.10214 40977 ft 419 kts 232°
2026-04-29 18:17 18.35727 -21.14709 40979 ft 419 kts 232°
2026-04-29 18:18 18.31731 -21.19215 40981 ft 420 kts 232°
2026-04-29 18:18 18.27759 -21.23690 40969 ft 420 kts 232°
2026-04-29 18:19 18.23737 -21.28219 40964 ft 421 kts 232°
2026-04-29 18:19 18.19726 -21.32731 40968 ft 421 kts 232°
2026-04-29 18:20 18.15715 -21.37242 40969 ft 421 kts 232°
2026-04-29 18:20 18.11692 -21.41763 40966 ft 422 kts 232°
2026-04-29 18:21 18.07660 -21.46290 40971 ft 422 kts 232°
2026-04-29 18:21 18.03632 -21.50808 40964 ft 422 kts 232°
2026-04-29 18:22 17.99599 -21.55329 40970 ft 422 kts 232°
2026-04-29 18:22 17.95557 -21.59858 40847 ft 425 kts 232°
2026-04-29 18:22 17.93522 -21.62138 40249 ft 427 kts 232°
2026-04-29 18:23 17.91514 -21.64383 39705 ft 421 kts 232°
2026-04-29 18:23 17.89507 -21.66628 39203 ft 420 kts 232°
2026-04-29 18:23 17.87512 -21.68859 38706 ft 418 kts 231°
2026-04-29 18:23 17.85534 -21.71071 38211 ft 419 kts 232°
2026-04-29 18:24 17.83541 -21.73299 37666 ft 420 kts 232°
2026-04-29 18:24 17.81534 -21.75543 37109 ft 420 kts 232°
2026-04-29 18:24 17.79507 -21.77807 36551 ft 422 kts 231°
2026-04-29 18:24 17.77497 -21.80054 35992 ft 424 kts 232°
2026-04-29 18:25 17.75479 -21.82307 35428 ft 426 kts 231°
2026-04-29 18:25 17.73434 -21.84588 34858 ft 428 kts 232°
2026-04-29 18:25 17.71406 -21.86851 34295 ft 430 kts 232°
2026-04-29 18:25 17.69336 -21.89160 33717 ft 432 kts 231°
2026-04-29 18:26 17.67289 -21.91442 33149 ft 434 kts 232°
2026-04-29 18:26 17.65209 -21.93772 32590 ft 435 kts 233°
2026-04-29 18:26 17.63259 -21.96142 32001 ft 431 kts 235°
2026-04-29 18:26 17.61326 -21.98550 31450 ft 428 kts 235°
2026-04-29 18:27 17.59427 -22.00911 30889 ft 426 kts 235°
2026-04-29 18:27 17.57528 -22.03272 30326 ft 424 kts 235°
2026-04-29 18:27 17.55619 -22.05644 29757 ft 421 kts 235°
2026-04-29 18:27 17.53727 -22.07994 29200 ft 420 kts 235°
2026-04-29 18:28 17.51864 -22.10307 28651 ft 418 kts 235°
2026-04-29 18:28 17.49980 -22.12644 28089 ft 416 kts 235°
2026-04-29 18:28 17.48135 -22.14932 27549 ft 413 kts 235°
2026-04-29 18:28 17.46276 -22.17237 26993 ft 410 kts 235°
2026-04-29 18:29 17.44457 -22.19491 26454 ft 407 kts 235°
2026-04-29 18:29 17.43243 -22.20995 26096 ft 405 kts 234°
2026-04-29 18:29 17.40830 -22.23983 25383 ft 402 kts 234°
2026-04-29 18:29 17.39023 -22.26220 24848 ft 398 kts 234°
2026-04-29 18:30 17.37258 -22.28404 24329 ft 396 kts 234°
2026-04-29 18:30 17.35475 -22.30610 23799 ft 393 kts 234°
2026-04-29 18:30 17.33711 -22.32792 23284 ft 391 kts 234°
2026-04-29 18:30 17.31977 -22.34936 22770 ft 388 kts 234°
2026-04-29 18:31 17.30228 -22.37098 22253 ft 386 kts 233°
2026-04-29 18:31 17.28513 -22.39216 21749 ft 384 kts 233°
2026-04-29 18:31 17.26785 -22.41351 21235 ft 381 kts 233°
2026-04-29 18:31 17.25091 -22.43444 20733 ft 379 kts 233°
2026-04-29 18:32 17.23383 -22.45551 20233 ft 377 kts 233°
2026-04-29 18:32 17.20022 -22.49699 19239 ft 372 kts 233°
2026-04-29 18:32 17.18346 -22.51765 18744 ft 370 kts 233°
2026-04-29 18:33 17.16702 -22.53792 18261 ft 367 kts 233°
2026-04-29 18:33 17.15044 -22.55835 17772 ft 365 kts 233°
2026-04-29 18:33 17.13421 -22.57835 17292 ft 363 kts 232°
2026-04-29 18:33 17.11782 -22.59855 16809 ft 361 kts 232°
2026-04-29 18:34 17.10174 -22.61835 16336 ft 360 kts 232°
2026-04-29 18:34 17.09098 -22.63159 16018 ft 358 kts 232°
2026-04-29 18:34 17.06955 -22.65797 15387 ft 356 kts 232°
2026-04-29 18:34 17.05343 -22.67779 14912 ft 354 kts 232°
2026-04-29 18:35 17.03758 -22.69729 14444 ft 352 kts 232°
2026-04-29 18:35 17.02192 -22.71655 13984 ft 350 kts 232°
2026-04-29 18:35 17.00612 -22.73597 13520 ft 348 kts 232°
2026-04-29 18:35 16.99069 -22.75493 13063 ft 343 kts 232°
2026-04-29 18:36 16.97531 -22.77381 12610 ft 335 kts 232°
2026-04-29 18:36 16.96051 -22.79198 12175 ft 327 kts 231°
2026-04-29 18:36 16.94589 -22.80993 11746 ft 319 kts 231°
2026-04-29 18:36 16.93141 -22.82686 11339 ft 312 kts 225°
2026-04-29 18:37 16.91346 -22.83957 10898 ft 311 kts 207°
2026-04-29 18:37 16.89275 -22.84551 10466 ft 311 kts 189°
2026-04-29 18:37 16.87096 -22.84595 9991 ft 310 kts 183°
2026-04-29 18:37 16.84957 -22.84570 9617 ft 303 kts 183°
2026-04-29 18:38 16.82867 -22.84551 9222 ft 297 kts 184°
2026-04-29 18:38 16.80829 -22.84533 8830 ft 292 kts 184°
2026-04-29 18:38 16.78799 -22.84516 8455 ft 287 kts 184°
2026-04-29 18:38 16.76831 -22.84500 8101 ft 281 kts 184°
2026-04-29 18:39 16.74869 -22.84484 7721 ft 278 kts 184°
2026-04-29 18:39 16.72953 -22.84469 7350 ft 276 kts 184°
2026-04-29 18:39 16.71020 -22.84455 6961 ft 275 kts 184°
2026-04-29 18:39 16.69093 -22.84441 6630 ft 274 kts 184°
2026-04-29 18:40 16.67177 -22.84427 6276 ft 275 kts 184°
2026-04-29 18:40 16.65282 -22.84413 5920 ft 274 kts 183°
2026-04-29 18:40 16.63359 -22.84399 5548 ft 271 kts 183°
2026-04-29 18:40 16.61502 -22.84385 5199 ft 266 kts 182°
2026-04-29 18:41 16.56176 -22.85070 4059 ft 254 kts 216°
2026-04-29 18:41 16.54962 -22.86343 3680 ft 249 kts 240°
2026-04-29 18:42 16.54352 -22.88018 3203 ft 248 kts 263°
2026-04-29 18:42 16.54152 -22.89778 2899 ft 242 kts 266°
2026-04-29 18:42 16.54046 -22.91409 2653 ft 239 kts 277°
2026-04-29 18:42 16.54500 -22.93056 2369 ft 235 kts 303°
2026-04-29 18:43 16.55622 -22.94268 2086 ft 229 kts 331°
2026-04-29 18:43 16.57120 -22.94744 1803 ft 224 kts 359°
2026-04-29 18:43 16.58672 -22.94762 1556 ft 223 kts
2026-04-29 18:43 16.60244 -22.94793 1501 ft 224 kts
2026-04-29 18:44 16.61823 -22.94811 1509 ft 225 kts
2026-04-29 18:44 16.63398 -22.94824 1514 ft 226 kts
2026-04-29 18:44 16.64907 -22.94836 1494 ft 201 kts
2026-04-29 18:44 16.66126 -22.94850 1649 ft 150 kts
2026-04-29 18:45 16.67137 -22.94859 1201 ft 140 kts
2026-04-29 18:45 16.68045 -22.94864 1059 ft 124 kts
2026-04-29 18:45 16.68922 -22.94866 854 ft 125 kts
2026-04-29 18:45 16.69798 -22.94870 694 ft 125 kts
2026-04-29 18:46 16.70662 -22.94873 544 ft 125 kts
2026-04-29 18:46 16.71541 -22.94883 388 ft 124 kts
2026-04-29 18:46 16.72413 -22.94891 229 ft 127 kts
2026-04-29 18:46 16.73220 -22.94896 191 ft 101 kts
2026-04-29 18:47 16.73748 -22.94897 190 ft 48 kts 359°
2026-04-29 18:47 16.73998 -22.94896 187 ft 28 kts
2026-04-29 18:47 16.74149 -22.94887 185 ft 14 kts
2026-04-29 18:47 16.74219 -22.94868 184 ft 7 kts 41°
2026-04-29 18:48 16.74244 -22.94834 183 ft 8 kts 55°
2026-04-29 18:48 16.74282 -22.94772 183 ft 11 kts 58°
2026-04-29 18:48 16.74256 -22.94700 184 ft 14 kts 171°
2026-04-29 18:48 16.74147 -22.94698 184 ft 17 kts 179°
2026-04-29 18:49 16.74016 -22.94694 186 ft 20 kts 178°
2026-04-29 18:49 16.73866 -22.94695 187 ft 23 kts 180°
2026-04-29 18:49 16.73696 -22.94684 187 ft 25 kts 151°
2026-04-29 18:49 16.73567 -22.94587 182 ft 19 kts 124°
2026-04-29 18:50 16.73560 -22.94502 182 ft 6 kts 90°
2026-04-29 18:50 16.73560 -22.94489 182 ft 0 kts 90°